Regional Weather Roundup
Issued by NWS Nashville, TN

Home | Current Version | Previous Version | Text Only | Print | Product List | Glossary On
Versions: 1 2 3 4 5 6 7 8 9 10 11 12 13 14 15 16 17 18 19 20 21 22 23 24 25 26 27 28 29 30 31 32 33 34 35 36 37 38 39 40 41 42 43 44 45 46 47 48 49 50
000
ASUS44 KOHX 310210
RWROHX
MIDDLE TENNESSEE HOURLY WEATHER ROUNDUP
NATIONAL WEATHER SERVICE NASHVILLE TN
900 PM CDT THU JUL 30 2015

NOTE: "FAIR" INDICATES FEW OR NO CLOUDS BELOW 12,000 FEET WITH
NO SIGNIFICANT WEATHER AND/OR OBSTRUCTIONS TO VISIBILITY.

* THESE REPORTS ARE NOT UNDER NWS QUALITY CONTROL AND MAY NOT
  REPORT WEATHER SUCH AS PRECIPITATION AND FOG.


TNZ005>011-023>034-057-059-062>066-078-080-310300
...NORTHERN MIDDLE TENNESSEE...

CITY           SKY/WX    TMP DP  RH WIND       PRES   REMARKS
CLARKSVILLE    CLEAR     71  65  81 N3        30.08R
CROSSVILLE     CLEAR     73  61  65 N5        30.11R
DICKSON        CLEAR     72  63  73 CALM      30.09R
NASHVILLE      PTCLDY    78  62  57 N6        30.07R
ROCKWOOD       CLEAR     74  65  73 N8        30.09R
SMYRNA         CLEAR     77  64  63 N7        30.08R
$$
TNZ056-058-060-061-075>077-079-093>097-310300
...SOUTHERN MIDDLE TENNESSEE...

CITY           SKY/WX    TMP DP  RH WIND       PRES   REMARKS
COLUMBIA       CLEAR     77  63  61 N3        30.07R
LEWISBURG      CLEAR     73  62  68 N3        30.07R
MCMINNVILLE    CLEAR     73  66  78 N5        30.08R
SHELBYVILLE    CLEAR     75  64  69 CALM      30.08R
TULLAHOMA      CLEAR     73  61  64 N8        30.08S
WINCHESTER     CLEAR     75  64  69 N13       30.06S
$$


...KEY TO REMARKS...
VSB - VISIBILITY IN MILES
WCI - WIND CHILL INDEX
HX  - HEAT INDEX



USA.gov is the U.S. government's official web portal to all federal, state and local government web resources and services.